| time (UTC) | temp C | wind direction | speed KPH | gust KPH | rain 1hr cm | rain 24hr cm | rain mn cm | humidity % | barometer mb |
| 20260507115332 | 5 | 136 | 0.0 | 0.0 | 0.00 | 0.00 | 0.00 | 92 | 1019.7 |
| 20260507114828 | 5 | 136 | 0.0 | 0.0 | 0.00 | 0.00 | 0.00 | 92 | 1020.0 |
| 20260507114326 | 5 | 136 | 0.0 | 0.0 | 0.00 | 0.00 | 0.00 | 92 | 1019.5 |
| 20260507113823 | 5 | 136 | 0.0 | 0.0 | 0.00 | 0.00 | 0.00 | 92 | 1019.7 |
| 20260507113320 | 5 | 136 | 0.0 | 0.0 | 0.00 | 0.00 | 0.00 | 91 | 1019.6 |
| 20260507112818 | 5 | 136 | 0.0 | 0.0 | 0.00 | 0.00 | 0.00 | 91 | 1019.7 |
| 20260507112314 | 5 | 137 | 0.0 | 0.0 | 0.00 | 0.00 | 0.00 | 91 | 1019.8 |
| 20260507111812 | 5 | 137 | 0.0 | 0.0 | 0.00 | 0.00 | 0.00 | 91 | 1019.7 |
| 20260507111308 | 6 | 138 | 0.0 | 0.0 | 0.00 | 0.00 | 0.00 | 91 | 1019.7 |
| 20260507110804 | 6 | 140 | 0.0 | 0.0 | 0.00 | 0.00 | 0.00 | 91 | 1019.5 |
| 20260507110301 | 6 | 139 | 0.0 | 0.0 | 0.00 | 0.00 | 0.00 | 91 | 1019.6 |
| 20260507105758 | 6 | 139 | 0.0 | 0.0 | 0.00 | 0.00 | 0.00 | 91 | 1019.6 |
| 20260507105254 | 6 | 140 | 0.0 | 0.0 | 0.00 | 0.00 | 0.00 | 90 | 1019.5 |
| 20260507104752 | 6 | 141 | 0.0 | 0.0 | 0.00 | 0.00 | 0.00 | 90 | 1019.5 |
| 20260507104248 | 6 | 139 | 0.0 | 0.0 | 0.00 | 0.00 | 0.00 | 90 | 1019.3 |
| 20260507103744 | 6 | 139 | 0.0 | 0.0 | 0.00 | 0.00 | 0.00 | 90 | 1019.8 |
| 20260507103240 | 6 | 142 | 0.0 | 0.0 | 0.00 | 0.00 | 0.00 | 90 | 1019.7 |
| 20260507102737 | 7 | 140 | 0.0 | 0.0 | 0.00 | 0.00 | 0.00 | 89 | 1019.7 |
| 20260507102234 | 7 | 142 | 0.0 | 0.0 | 0.00 | 0.00 | 0.00 | 89 | 1019.8 |
| 20260507101730 | 7 | 141 | 0.0 | 0.0 | 0.00 | 0.00 | 0.00 | 89 | 1020.1 |
| 20260507101225 | 7 | 140 | 0.0 | 0.0 | 0.00 | 0.00 | 0.00 | 89 | 1019.9 |
| 20260507100722 | 7 | 136 | 0.0 | 0.0 | 0.00 | 0.00 | 0.00 | 89 | 1020.0 |
| 20260507100221 | 7 | 137 | 0.0 | 0.0 | 0.00 | 0.00 | 0.00 | 89 | 1020.3 |
| 20260507095718 | 7 | 135 | 0.0 | 0.0 | 0.00 | 0.00 | 0.00 | 89 | 1020.1 |
| 20260507095215 | 7 | 136 | 0.0 | 0.0 | 0.00 | 0.00 | 0.00 | 89 | 1020.1 |
| 20260507094712 | 7 | 136 | 0.0 | 0.0 | 0.00 | 0.00 | 0.00 | 89 | 1020.0 |
| 20260507094209 | 7 | 138 | 0.0 | 0.0 | 0.00 | 0.00 | 0.00 | 89 | 1019.8 |
| 20260507093705 | 7 | 137 | 0.0 | 0.0 | 0.00 | 0.00 | 0.00 | 89 | 1020.0 |
| 20260507093204 | 7 | 138 | 0.0 | 0.0 | 0.00 | 0.00 | 0.00 | 89 | 1020.1 |
| 20260507092701 | 7 | 139 | 0.0 | 0.0 | 0.00 | 0.00 | 0.00 | 89 | 1020.2 |
| 20260507092157 | 7 | 139 | 0.0 | 0.0 | 0.00 | 0.00 | 0.00 | 89 | 1019.9 |
| 20260507091654 | 7 | 144 | 0.0 | 0.0 | 0.00 | 0.00 | 0.00 | 89 | 1020.3 |
| 20260507091150 | 7 | 131 | 0.0 | 0.0 | 0.00 | 0.00 | 0.00 | 89 | 1020.3 |
| 20260507090645 | 8 | 131 | 0.0 | 0.0 | 0.00 | 0.00 | 0.00 | 88 | 1020.1 |
| 20260507090143 | 8 | 131 | 0.0 | 0.0 | 0.00 | 0.00 | 0.00 | 88 | 1020.2 |
| 20260507085640 | 8 | 141 | 0.0 | 0.0 | 0.00 | 0.00 | 0.00 | 88 | 1020.3 |
| 20260507085137 | 8 | 135 | 0.0 | 0.0 | 0.00 | 0.00 | 0.00 | 88 | 1020.2 |
| 20260507084634 | 8 | 135 | 0.0 | 0.0 | 0.00 | 0.00 | 0.00 | 87 | 1020.2 |
| 20260507084130 | 8 | 135 | 0.0 | 0.0 | 0.00 | 0.00 | 0.00 | 86 | 1020.1 |
| 20260507083627 | 8 | 145 | 0.0 | 0.0 | 0.00 | 0.00 | 0.00 | 85 | 1019.9 |
| 20260507083124 | 9 | 130 | 0.0 | 0.0 | 0.00 | 0.00 | 0.00 | 85 | 1020.0 |
| 20260507082619 | 9 | 133 | 0.0 | 0.0 | 0.00 | 0.00 | 0.00 | 84 | 1020.3 |
| 20260507082116 | 10 | 134 | 0.0 | 0.0 | 0.00 | 0.00 | 0.00 | 83 | 1020.0 |
| 20260507081613 | 10 | 140 | 0.0 | 0.0 | 0.00 | 0.00 | 0.00 | 82 | 1020.3 |
| 20260507081109 | 10 | 134 | 0.0 | 0.0 | 0.00 | 0.00 | 0.00 | 82 | 1020.2 |
| 20260507080606 | 10 | 133 | 0.0 | 0.0 | 0.00 | 0.00 | 0.00 | 82 | 1020.6 |
| 20260507075557 | 10 | 140 | 0.0 | 0.0 | 0.00 | 0.00 | 0.00 | 82 | 1020.4 |
| 20260507075054 | 10 | 134 | 0.0 | 0.0 | 0.00 | 0.00 | 0.00 | 82 | 1020.5 |
| 20260507074551 | 10 | 130 | 0.0 | 0.0 | 0.00 | 0.00 | 0.00 | 82 | 1020.6 |
| 20260507074049 | 10 | 139 | 0.0 | 0.0 | 0.00 | 0.00 | 0.00 | 82 | 1020.6 |
| 20260507073545 | 10 | 143 | 0.0 | 0.0 | 0.00 | 0.00 | 0.00 | 82 | 1020.4 |
| 20260507073041 | 10 | 142 | 0.0 | 0.0 | 0.00 | 0.00 | 0.00 | 82 | 1020.5 |
| 20260507072539 | 10 | 132 | 0.0 | 0.0 | 0.00 | 0.00 | 0.00 | 82 | 1020.5 |
| 20260507072036 | 10 | 130 | 0.0 | 0.0 | 0.00 | 0.00 | 0.00 | 83 | 1020.8 |
| 20260507071533 | 10 | 130 | 0.0 | 0.0 | 0.00 | 0.00 | 0.00 | 83 | 1020.8 |
| 20260507071030 | 10 | 129 | 0.0 | 0.0 | 0.00 | 0.00 | 0.00 | 81 | 1020.7 |
| 20260507070527 | 10 | 129 | 0.0 | 0.0 | 0.00 | 0.00 | 0.00 | 80 | 1021.1 |
| 20260507070024 | 10 | 129 | 0.0 | 0.0 | 0.00 | 0.00 | 0.00 | 80 | 1020.9 |
| 20260507065520 | 10 | 129 | 0.0 | 0.0 | 0.00 | 0.00 | 0.00 | 80 | 1021.0 |
| 20260507065018 | 10 | 129 | 0.0 | 0.0 | 0.00 | 0.00 | 0.00 | 79 | 1021.0 |
| 20260507064515 | 10 | 130 | 0.0 | 0.0 | 0.00 | 0.00 | 0.00 | 79 | 1021.1 |
| 20260507064014 | 10 | 130 | 0.0 | 0.0 | 0.00 | 0.00 | 0.00 | 79 | 1021.1 |
| 20260507063510 | 10 | 131 | 0.0 | 0.0 | 0.00 | 0.00 | 0.00 | 79 | 1021.2 |
| 20260507063008 | 10 | 130 | 0.0 | 0.0 | 0.00 | 0.00 | 0.00 | 80 | 1021.0 |
| 20260507062504 | 10 | 130 | 0.0 | 0.0 | 0.00 | 0.00 | 0.00 | 80 | 1020.8 |
| 20260507062002 | 10 | 130 | 0.0 | 0.0 | 0.00 | 0.00 | 0.00 | 80 | 1021.0 |
| 20260507061459 | 10 | 130 | 0.0 | 0.0 | 0.00 | 0.00 | 0.00 | 81 | 1021.0 |
| 20260507060958 | 10 | 130 | 0.0 | 0.0 | 0.00 | 0.00 | 0.00 | 79 | 1020.9 |
| 20260507060454 | 10 | 130 | 0.0 | 0.0 | 0.00 | 0.00 | 0.00 | 81 | 1020.8 |
| 20260507055951 | 10 | 130 | 0.0 | 0.0 | 0.00 | 0.00 | 0.00 | 80 | 1021.0 |
| 20260507055446 | 10 | 130 | 0.0 | 0.0 | 0.00 | 0.00 | 0.00 | 80 | 1020.9 |
| 20260507054943 | 10 | 130 | 0.0 | 0.0 | 0.00 | 0.00 | 0.00 | 78 | 1021.0 |
| 20260507054439 | 10 | 130 | 0.0 | 0.0 | 0.00 | 0.00 | 0.00 | 79 | 1021.1 |
| 20260507053936 | 10 | 127 | 0.0 | 0.0 | 0.00 | 0.00 | 0.00 | 79 | 1021.5 |
| 20260507053434 | 10 | 127 | 0.0 | 0.0 | 0.00 | 0.00 | 0.00 | 80 | 1021.5 |
| 20260507052932 | 10 | 127 | 0.0 | 0.0 | 0.00 | 0.00 | 0.00 | 81 | 1020.9 |
| 20260507052430 | 10 | 127 | 0.0 | 0.0 | 0.00 | 0.00 | 0.00 | 80 | 1021.2 |
| 20260507051927 | 10 | 127 | 0.0 | 0.0 | 0.00 | 0.00 | 0.00 | 82 | 1021.3 |
| 20260507051424 | 10 | 127 | 0.0 | 0.0 | 0.00 | 0.00 | 0.00 | 83 | 1021.0 |
| 20260507050921 | 10 | 127 | 0.0 | 0.0 | 0.00 | 0.00 | 0.00 | 82 | 1021.0 |
| 20260507050418 | 10 | 127 | 0.0 | 0.0 | 0.00 | 0.00 | 0.00 | 82 | 1021.1 |
| 20260507045915 | 10 | 127 | 0.0 | 0.0 | 0.00 | 0.00 | 0.00 | 82 | 1021.1 |
| 20260507045411 | 10 | 127 | 0.0 | 0.0 | 0.00 | 0.00 | 0.00 | 80 | 1021.2 |
| 20260507044908 | 9 | 126 | 0.0 | 0.0 | 0.00 | 0.00 | 0.00 | 82 | 1021.0 |
| 20260507044405 | 9 | 126 | 0.0 | 0.0 | 0.00 | 0.00 | 0.00 | 82 | 1020.9 |
| 20260507043901 | 9 | 127 | 0.0 | 0.0 | 0.00 | 0.00 | 0.00 | 82 | 1021.0 |
| 20260507043357 | 9 | 127 | 0.0 | 0.0 | 0.00 | 0.00 | 0.00 | 81 | 1020.9 |
| 20260507042854 | 9 | 127 | 0.0 | 0.0 | 0.00 | 0.00 | 0.00 | 82 | 1020.9 |
| 20260507042350 | 9 | 127 | 0.0 | 0.0 | 0.00 | 0.00 | 0.00 | 82 | 1020.9 |
| 20260507041846 | 9 | 127 | 0.0 | 0.0 | 0.00 | 0.00 | 0.00 | 80 | 1020.5 |
| 20260507041343 | 10 | 127 | 0.0 | 0.0 | 0.00 | 0.00 | 0.00 | 78 | 1020.8 |
| 20260507040841 | 10 | 127 | 0.0 | 0.0 | 0.00 | 0.00 | 0.00 | 79 | 1020.7 |
| 20260507040336 | 10 | 127 | 0.0 | 0.0 | 0.00 | 0.00 | 0.00 | 77 | 1020.8 |
| 20260507035832 | 10 | 127 | 0.0 | 0.0 | 0.00 | 0.00 | 0.00 | 76 | 1020.6 |
| 20260507035328 | 10 | 127 | 0.0 | 0.0 | 0.00 | 0.00 | 0.00 | 74 | 1020.8 |
| 20260507034826 | 10 | 127 | 0.0 | 0.0 | 0.00 | 0.00 | 0.00 | 74 | 1020.8 |
| 20260507034322 | 11 | 127 | 0.0 | 0.0 | 0.00 | 0.00 | 0.00 | 74 | 1021.0 |
| 20260507033821 | 11 | 127 | 0.0 | 0.0 | 0.00 | 0.00 | 0.00 | 74 | 1020.7 |
| 20260507033318 | 11 | 126 | 0.0 | 0.0 | 0.00 | 0.00 | 0.00 | 73 | 1021.1 |
| 20260507032815 | 11 | 127 | 0.0 | 0.0 | 0.00 | 0.00 | 0.00 | 74 | 1020.9 |
| 20260507032311 | 11 | 127 | 0.0 | 0.0 | 0.00 | 0.00 | 0.00 | 75 | 1020.8 |
| 20260507031808 | 11 | 127 | 0.0 | 0.0 | 0.00 | 0.00 | 0.00 | 73 | 1020.6 |
| 20260507031305 | 11 | 127 | 0.0 | 0.0 | 0.00 | 0.00 | 0.00 | 71 | 1020.6 |
| 20260507030801 | 11 | 127 | 0.0 | 0.0 | 0.00 | 0.00 | 0.00 | 71 | 1020.7 |
| 20260507030259 | 11 | 127 | 0.0 | 0.0 | 0.00 | 0.00 | 0.00 | 72 | 1020.6 |
| 20260507025756 | 11 | 128 | 0.0 | 0.0 | 0.00 | 0.00 | 0.00 | 75 | 1020.7 |
| 20260507025253 | 11 | 128 | 0.0 | 0.0 | 0.00 | 0.00 | 0.00 | 74 | 1020.6 |
| 20260507024751 | 11 | 127 | 0.0 | 0.0 | 0.00 | 0.00 | 0.00 | 73 | 1020.6 |
| 20260507024248 | 11 | 127 | 0.0 | 0.0 | 0.00 | 0.00 | 0.00 | 71 | 1020.7 |
| 20260507023743 | 11 | 127 | 0.0 | 0.0 | 0.00 | 0.00 | 0.00 | 69 | 1020.6 |
| 20260507023240 | 11 | 127 | 0.0 | 0.0 | 0.00 | 0.00 | 0.00 | 69 | 1020.5 |
| 20260507022738 | 11 | 127 | 0.0 | 0.0 | 0.00 | 0.00 | 0.00 | 71 | 1020.5 |
| 20260507022233 | 11 | 127 | 0.0 | 0.0 | 0.00 | 0.00 | 0.00 | 70 | 1020.6 |
| 20260507021730 | 12 | 127 | 0.0 | 0.0 | 0.00 | 0.00 | 0.00 | 70 | 1020.5 |
| 20260507021225 | 12 | 127 | 0.0 | 0.0 | 0.00 | 0.00 | 0.00 | 68 | 1020.3 |
| 20260507020724 | 12 | 127 | 0.0 | 0.0 | 0.00 | 0.00 | 0.00 | 68 | 1020.3 |
| 20260507020220 | 12 | 129 | 0.0 | 0.0 | 0.00 | 0.00 | 0.00 | 70 | 1020.3 |
| 20260507015718 | 12 | 130 | 0.0 | 0.0 | 0.00 | 0.00 | 0.00 | 69 | 1020.2 |
| 20260507015215 | 12 | 130 | 0.0 | 0.0 | 0.00 | 0.00 | 0.00 | 69 | 1020.0 |
| 20260507014712 | 12 | 130 | 0.0 | 0.0 | 0.00 | 0.00 | 0.00 | 69 | 1020.0 |
| 20260507014208 | 12 | 130 | 0.0 | 0.0 | 0.00 | 0.00 | 0.00 | 67 | 1019.9 |
| 20260507013705 | 12 | 130 | 0.0 | 0.0 | 0.00 | 0.00 | 0.00 | 67 | 1020.0 |
| 20260507013202 | 12 | 130 | 0.0 | 0.0 | 0.00 | 0.00 | 0.00 | 66 | 1019.7 |
| 20260507012659 | 12 | 130 | 0.0 | 0.0 | 0.00 | 0.00 | 0.00 | 64 | 1019.7 |
| 20260507012155 | 12 | 130 | 0.0 | 0.0 | 0.00 | 0.00 | 0.00 | 63 | 1019.7 |
| 20260507011653 | 13 | 130 | 0.0 | 0.0 | 0.00 | 0.00 | 0.00 | 59 | 1019.6 |
| 20260507011149 | 13 | 130 | 0.0 | 0.0 | 0.00 | 0.00 | 0.00 | 59 | 1019.3 |
| 20260507010644 | 13 | 130 | 0.0 | 0.0 | 0.00 | 0.00 | 0.00 | 58 | 1019.5 |
| 20260507010140 | 13 | 130 | 0.0 | 0.0 | 0.00 | 0.00 | 0.00 | 58 | 1019.7 |
| 20260507005637 | 13 | 131 | 0.0 | 0.0 | 0.00 | 0.00 | 0.00 | 57 | 1019.5 |
| 20260507005133 | 13 | 133 | 0.0 | 0.0 | 0.00 | 0.00 | 0.00 | 57 | 1019.5 |
| 20260507004630 | 13 | 117 | 0.0 | 0.0 | 0.00 | 0.00 | 0.00 | 56 | 1019.7 |
| 20260507004128 | 14 | 131 | 0.0 | 0.0 | 0.00 | 0.00 | 0.00 | 55 | 1019.5 |
| 20260507003624 | 14 | 139 | 0.0 | 0.0 | 0.00 | 0.00 | 0.00 | 54 | 1019.6 |
| 20260507003120 | 15 | 129 | 0.0 | 0.0 | 0.00 | 0.00 | 0.00 | 53 | 1019.6 |
| 20260507002616 | 15 | 117 | 0.0 | 0.0 | 0.00 | 0.00 | 0.00 | 53 | 1019.3 |
| 20260507002111 | 15 | 130 | 0.0 | 0.0 | 0.00 | 0.00 | 0.00 | 54 | 1019.5 |
| 20260507001608 | 15 | 128 | 0.0 | 0.0 | 0.00 | 0.00 | 0.00 | 53 | 1019.3 |
| 20260507001106 | 15 | 90 | 1.6 | 1.6 | 0.00 | 0.00 | 0.00 | 53 | 1019.5 |
| 20260507000602 | 15 | 117 | 0.0 | 0.0 | 0.00 | 0.00 | 0.00 | 53 | 1019.5 |
| 20260507000058 | 15 | 100 | 1.6 | 1.6 | 0.00 | 0.00 | 0.00 | 51 | 1019.6 |
| 20260506235555 | 16 | 159 | 1.6 | 1.6 | 0.00 | 0.00 | 0.00 | 50 | 1019.3 |
| 20260506235050 | 15 | 120 | 0.0 | 0.0 | 0.00 | 0.00 | 0.00 | 51 | 1019.1 |
| 20260506234548 | 15 | 94 | 1.6 | 1.6 | 0.00 | 0.00 | 0.00 | 51 | 1019.1 |
| 20260506234045 | 15 | 127 | 0.0 | 0.0 | 0.00 | 0.00 | 0.00 | 52 | 1019.3 |
| 20260506233542 | 15 | 121 | 0.0 | 0.0 | 0.00 | 0.00 | 0.00 | 52 | 1019.1 |
| 20260506233039 | 15 | 41 | 1.6 | 3.2 | 0.00 | 0.00 | 0.00 | 49 | 1019.2 |
| 20260506232535 | 15 | 359 | 1.6 | 3.2 | 0.00 | 0.00 | 0.00 | 50 | 1019.2 |
| 20260506232030 | 15 | 123 | 0.0 | 0.0 | 0.00 | 0.00 | 0.00 | 49 | 1019.0 |
| 20260506231528 | 16 | 120 | 0.0 | 1.6 | 0.00 | 0.00 | 0.00 | 49 | 1019.1 |
| 20260506231026 | 16 | 153 | 1.6 | 1.6 | 0.00 | 0.00 | 0.00 | 49 | 1018.9 |
| 20260506230522 | 15 | 86 | 3.2 | 3.2 | 0.00 | 0.00 | 0.00 | 51 | 1019.1 |
| 20260506230020 | 15 | 116 | 0.0 | 0.0 | 0.00 | 0.00 | 0.00 | 51 | 1019.1 |
| 20260506225516 | 16 | 129 | 0.0 | 0.0 | 0.00 | 0.00 | 0.00 | 50 | 1019.2 |
| 20260506225007 | 16 | 124 | 0.0 | 0.0 | 0.00 | 0.00 | 0.00 | 49 | 1019.2 |
| 20260506224504 | 16 | 115 | 0.0 | 1.6 | 0.00 | 0.00 | 0.00 | 49 | 1019.2 |
| 20260506224001 | 16 | 131 | 0.0 | 0.0 | 0.00 | 0.00 | 0.00 | 48 | 1019.0 |
| 20260506223456 | 16 | 119 | 0.0 | 1.6 | 0.00 | 0.00 | 0.00 | 51 | 1018.9 |
| 20260506222954 | 16 | 279 | 1.6 | 3.2 | 0.00 | 0.00 | 0.00 | 50 | 1018.9 |
| 20260506222450 | 16 | 119 | 0.0 | 0.0 | 0.00 | 0.00 | 0.00 | 51 | 1018.9 |
| 20260506221947 | 16 | 115 | 0.0 | 1.6 | 0.00 | 0.00 | 0.00 | 52 | 1018.8 |
| 20260506221444 | 17 | 353 | 9.7 | 11.3 | 0.00 | 0.00 | 0.00 | 47 | 1018.9 |
| 20260506220942 | 17 | 23 | 3.2 | 4.8 | 0.00 | 0.00 | 0.00 | 46 | 1018.9 |
| 20260506220437 | 16 | 121 | 0.0 | 0.0 | 0.00 | 0.00 | 0.00 | 47 | 1019.0 |
| 20260506215934 | 16 | 115 | 1.6 | 1.6 | 0.00 | 0.00 | 0.00 | 48 | 1019.0 |
| 20260506215430 | 17 | 136 | 0.0 | 0.0 | 0.00 | 0.00 | 0.00 | 46 | 1018.9 |
| 20260506214926 | 17 | 135 | 0.0 | 1.6 | 0.00 | 0.00 | 0.00 | 45 | 1018.8 |
| 20260506214423 | 17 | 141 | 0.0 | 1.6 | 0.00 | 0.00 | 0.00 | 43 | 1019.2 |
| 20260506213921 | 17 | 130 | 0.0 | 1.6 | 0.00 | 0.00 | 0.00 | 45 | 1019.0 |
| 20260506213418 | 17 | 51 | 4.8 | 8.0 | 0.00 | 0.00 | 0.00 | 45 | 1019.2 |
| 20260506212916 | 17 | 327 | 3.2 | 8.0 | 0.00 | 0.00 | 0.00 | 45 | 1019.1 |
| 20260506212411 | 17 | 102 | 1.6 | 3.2 | 0.00 | 0.00 | 0.00 | 45 | 1019.2 |
| 20260506211906 | 18 | 204 | 1.6 | 3.2 | 0.00 | 0.00 | 0.00 | 42 | 1019.6 |
| 20260506211403 | 17 | 118 | 0.0 | 0.0 | 0.00 | 0.00 | 0.00 | 47 | 1019.5 |
| 20260506210900 | 18 | 144 | 0.0 | 1.6 | 0.00 | 0.00 | 0.00 | 45 | 1019.2 |
| 20260506210356 | 17 | 181 | 0.0 | 0.0 | 0.00 | 0.00 | 0.00 | 45 | 1019.3 |
| 20260506205854 | 17 | 334 | 9.7 | 12.9 | 0.00 | 0.00 | 0.00 | 45 | 1019.6 |
| 20260506205349 | 17 | 147 | 0.0 | 0.0 | 0.00 | 0.00 | 0.00 | 47 | 1019.5 |
| 20260506204846 | 17 | 159 | 1.6 | 3.2 | 0.00 | 0.00 | 0.00 | 46 | 1019.5 |
| 20260506204344 | 17 | 114 | 3.2 | 3.2 | 0.00 | 0.00 | 0.00 | 44 | 1019.7 |
| 20260506203841 | 17 | 115 | 0.0 | 1.6 | 0.00 | 0.00 | 0.00 | 46 | 1019.7 |
| 20260506203338 | 17 | 314 | 1.6 | 3.2 | 0.00 | 0.00 | 0.00 | 45 | 1020.0 |
| 20260506202835 | 18 | 161 | 1.6 | 1.6 | 0.00 | 0.00 | 0.00 | 46 | 1019.8 |
| 20260506202332 | 18 | 118 | 1.6 | 3.2 | 0.00 | 0.00 | 0.00 | 46 | 1020.0 |
| 20260506201829 | 17 | 39 | 4.8 | 8.0 | 0.00 | 0.00 | 0.00 | 48 | 1020.0 |
| 20260506201326 | 17 | 183 | 0.0 | 1.6 | 0.00 | 0.00 | 0.00 | 51 | 1020.2 |
| 20260506200823 | 17 | 331 | 4.8 | 4.8 | 0.00 | 0.00 | 0.00 | 49 | 1020.3 |
| 20260506200319 | 17 | 114 | 1.6 | 1.6 | 0.00 | 0.00 | 0.00 | 48 | 1020.1 |
| 20260506195815 | 18 | 125 | 0.0 | 0.0 | 0.00 | 0.00 | 0.00 | 49 | 1020.2 |
| 20260506195313 | 17 | 121 | 0.0 | 1.6 | 0.00 | 0.00 | 0.00 | 48 | 1020.3 |
| 20260506194809 | 17 | 145 | 0.0 | 0.0 | 0.00 | 0.00 | 0.00 | 48 | 1020.3 |
| 20260506194306 | 17 | 125 | 1.6 | 1.6 | 0.00 | 0.00 | 0.00 | 47 | 1020.4 |
| 20260506193804 | 16 | 115 | 0.0 | 0.0 | 0.00 | 0.00 | 0.00 | 49 | 1020.3 |
| 20260506193300 | 17 | 287 | 4.8 | 8.0 | 0.00 | 0.00 | 0.00 | 47 | 1020.4 |
| 20260506192756 | 17 | 119 | 1.6 | 3.2 | 0.00 | 0.00 | 0.00 | 48 | 1020.6 |
| 20260506192253 | 16 | 130 | 0.0 | 0.0 | 0.00 | 0.00 | 0.00 | 48 | 1020.7 |
| 20260506191750 | 16 | 116 | 0.0 | 1.6 | 0.00 | 0.00 | 0.00 | 49 | 1020.3 |
| 20260506191246 | 16 | 127 | 0.0 | 0.0 | 0.00 | 0.00 | 0.00 | 50 | 1020.4 |
| 20260506190744 | 16 | 122 | 0.0 | 1.6 | 0.00 | 0.00 | 0.00 | 47 | 1020.6 |
| 20260506190240 | 17 | 102 | 1.6 | 3.2 | 0.00 | 0.00 | 0.00 | 50 | 1020.4 |
| 20260506185737 | 16 | 113 | 3.2 | 3.2 | 0.00 | 0.00 | 0.00 | 50 | 1020.5 |
| 20260506185234 | 17 | 136 | 4.8 | 4.8 | 0.00 | 0.00 | 0.00 | 47 | 1020.5 |
| 20260506184731 | 17 | 107 | 1.6 | 3.2 | 0.00 | 0.00 | 0.00 | 49 | 1020.5 |
| 20260506184228 | 16 | 118 | 0.0 | 0.0 | 0.00 | 0.00 | 0.00 | 55 | 1020.6 |
| 20260506183725 | 16 | 100 | 3.2 | 3.2 | 0.00 | 0.00 | 0.00 | 51 | 1020.6 |
| 20260506183221 | 16 | 110 | 4.8 | 4.8 | 0.00 | 0.00 | 0.00 | 54 | 1020.7 |
| 20260506182718 | 17 | 105 | 3.2 | 4.8 | 0.00 | 0.00 | 0.00 | 53 | 1020.6 |
| 20260506182215 | 17 | 121 | 0.0 | 1.6 | 0.00 | 0.00 | 0.00 | 55 | 1021.0 |
| 20260506181713 | 16 | 115 | 1.6 | 1.6 | 0.00 | 0.00 | 0.00 | 54 | 1020.9 |
| 20260506181211 | 15 | 146 | 3.2 | 3.2 | 0.00 | 0.00 | 0.00 | 54 | 1020.6 |
| 20260506180707 | 15 | 121 | 4.8 | 9.7 | 0.00 | 0.00 | 0.00 | 55 | 1020.8 |
| 20260506180203 | 15 | 41 | 6.4 | 8.0 | 0.00 | 0.00 | 0.00 | 56 | 1021.2 |
| 20260506175700 | 14 | 110 | 3.2 | 4.8 | 0.00 | 0.00 | 0.00 | 57 | 1021.1 |
| 20260506175156 | 14 | 107 | 0.0 | 1.6 | 0.00 | 0.00 | 0.00 | 58 | 1021.3 |
| 20260506174649 | 14 | 116 | 1.6 | 1.6 | 0.00 | 0.00 | 0.00 | 59 | 1021.6 |
| 20260506174145 | 14 | 133 | 1.6 | 1.6 | 0.00 | 0.00 | 0.00 | 57 | 1021.3 |
| 20260506173643 | 13 | 120 | 1.6 | 4.8 | 0.00 | 0.00 | 0.00 | 61 | 1021.0 |
| 20260506173134 | 13 | 63 | 4.8 | 8.0 | 0.00 | 0.00 | 0.00 | 59 | 1021.5 |
| 20260506172631 | 13 | 112 | 1.6 | 3.2 | 0.00 | 0.00 | 0.00 | 63 | 1021.4 |
| 20260506172127 | 13 | 116 | 0.0 | 1.6 | 0.00 | 0.00 | 0.00 | 63 | 1021.4 |
| 20260506171625 | 13 | 129 | 0.0 | 0.0 | 0.00 | 0.00 | 0.00 | 68 | 1021.6 |
| 20260506171122 | 13 | 108 | 0.0 | 1.6 | 0.00 | 0.00 | 0.00 | 66 | 1021.7 |
| 20260506170620 | 13 | 69 | 1.6 | 3.2 | 0.00 | 0.00 | 0.00 | 66 | 1021.4 |
| 20260506170117 | 13 | 105 | 0.0 | 0.0 | 0.00 | 0.00 | 0.00 | 68 | 1021.4 |
| 20260506165615 | 13 | 330 | 4.8 | 4.8 | 0.00 | 0.00 | 0.00 | 67 | 1021.3 |
| 20260506165111 | 13 | 324 | 1.6 | 8.0 | 0.00 | 0.00 | 0.00 | 68 | 1021.2 |
| 20260506164609 | 13 | 341 | 0.0 | 1.6 | 0.00 | 0.00 | 0.00 | 72 | 1021.3 |
| 20260506164106 | 12 | 99 | 3.2 | 3.2 | 0.00 | 0.00 | 0.00 | 74 | 1021.1 |
| 20260506163601 | 12 | 115 | 0.0 | 0.0 | 0.00 | 0.00 | 0.00 | 72 | 1021.0 |
| 20260506163057 | 12 | 318 | 4.8 | 9.7 | 0.00 | 0.00 | 0.00 | 74 | 1021.5 |
| 20260506162553 | 12 | 125 | 0.0 | 0.0 | 0.00 | 0.00 | 0.00 | 74 | 1021.3 |
| 20260506162045 | 11 | 110 | 1.6 | 3.2 | 0.00 | 0.00 | 0.00 | 75 | 1021.1 |
| 20260506161543 | 11 | 0 | 1.6 | 3.2 | 0.00 | 0.00 | 0.00 | 74 | 1020.9 |
| 20260506161039 | 11 | 121 | 0.0 | 0.0 | 0.00 | 0.00 | 0.00 | 75 | 1021.0 |
| 20260506160537 | 11 | 117 | 0.0 | 0.0 | 0.00 | 0.00 | 0.00 | 79 | 1021.3 |
| 20260506160034 | 11 | 310 | 6.4 | 8.0 | 0.00 | 0.00 | 0.00 | 77 | 1021.2 |
| 20260506155533 | 11 | 93 | 0.0 | 0.0 | 0.00 | 0.00 | 0.00 | 78 | 1021.1 |
| 20260506153709 | 10 | 123 | 0.0 | 0.0 | 0.00 | 0.00 | 0.00 | 83 | 1021.3 |
| 20260506153207 | 10 | 348 | 6.4 | 9.7 | 0.00 | 0.00 | 0.00 | 83 | 1021.4 |
| 20260506152703 | 10 | 120 | 0.0 | 0.0 | 0.00 | 0.00 | 0.00 | 87 | 1021.1 |
| 20260506152201 | 10 | 112 | 0.0 | 0.0 | 0.00 | 0.00 | 0.00 | 84 | 1021.2 |
| 20260506151700 | 10 | 109 | 0.0 | 0.0 | 0.00 | 0.00 | 0.00 | 87 | 1021.1 |
| 20260506151155 | 9 | 112 | 0.0 | 0.0 | 0.00 | 0.00 | 0.00 | 87 | 1021.0 |
| 20260506150652 | 9 | 90 | 0.0 | 0.0 | 0.00 | 0.00 | 0.00 | 87 | 1021.0 |
| 20260506150150 | 9 | 124 | 0.0 | 0.0 | 0.00 | 0.00 | 0.00 | 90 | 1021.3 |
| 20260506145646 | 8 | 115 | 0.0 | 0.0 | 0.00 | 0.00 | 0.00 | 87 | 1021.2 |
| 20260506145143 | 9 | 119 | 0.0 | 0.0 | 0.00 | 0.00 | 0.00 | 91 | 1021.0 |
| 20260506144641 | 8 | 11 | 0.0 | 1.6 | 0.00 | 0.00 | 0.00 | 90 | 1021.2 |
| 20260506144137 | 8 | 114 | 0.0 | 0.0 | 0.00 | 0.00 | 0.00 | 91 | 1021.4 |
| 20260506143635 | 8 | 25 | 0.0 | 0.0 | 0.00 | 0.00 | 0.00 | 91 | 1021.0 |
| 20260506143133 | 8 | 13 | 1.6 | 4.8 | 0.00 | 0.00 | 0.00 | 92 | 1020.9 |
| 20260506142631 | 8 | 123 | 0.0 | 0.0 | 0.00 | 0.00 | 0.00 | 92 | 1020.8 |
| 20260506142129 | 8 | 111 | 0.0 | 0.0 | 0.00 | 0.00 | 0.00 | 93 | 1020.5 |
| 20260506141626 | 8 | 120 | 0.0 | 0.0 | 0.00 | 0.00 | 0.00 | 93 | 1020.7 |
| 20260506141124 | 8 | 119 | 0.0 | 0.0 | 0.00 | 0.00 | 0.00 | 93 | 1021.1 |
| 20260506140622 | 8 | 93 | 0.0 | 1.6 | 0.00 | 0.00 | 0.00 | 91 | 1021.2 |
| 20260506140119 | 8 | 347 | 1.6 | 3.2 | 0.00 | 0.00 | 0.00 | 93 | 1020.9 |
| 20260506135616 | 8 | 119 | 0.0 | 0.0 | 0.00 | 0.00 | 0.00 | 93 | 1020.9 |
| 20260506135112 | 8 | 91 | 0.0 | 0.0 | 0.00 | 0.00 | 0.00 | 93 | 1020.8 |
| 20260506134609 | 8 | 125 | 0.0 | 0.0 | 0.00 | 0.00 | 0.00 | 93 | 1020.8 |
| 20260506134104 | 8 | 126 | 0.0 | 0.0 | 0.00 | 0.00 | 0.00 | 93 | 1021.0 |
| 20260506133602 | 8 | 110 | 1.6 | 1.6 | 0.00 | 0.00 | 0.00 | 94 | 1020.6 |
| 20260506133059 | 7 | 131 | 0.0 | 0.0 | 0.00 | 0.00 | 0.00 | 94 | 1020.4 |
| 20260506132556 | 7 | 131 | 0.0 | 0.0 | 0.00 | 0.00 | 0.00 | 94 | 1020.8 |
| 20260506132053 | 7 | 133 | 0.0 | 0.0 | 0.00 | 0.00 | 0.00 | 95 | 1020.5 |
| 20260506131550 | 7 | 133 | 0.0 | 0.0 | 0.00 | 0.00 | 0.00 | 95 | 1020.8 |
| 20260506131046 | 7 | 133 | 0.0 | 0.0 | 0.00 | 0.00 | 0.00 | 95 | 1020.6 |
| 20260506130543 | 7 | 133 | 0.0 | 0.0 | 0.00 | 0.00 | 0.00 | 95 | 1020.6 |
| 20260506130041 | 7 | 131 | 0.0 | 0.0 | 0.00 | 0.00 | 0.00 | 95 | 1020.7 |
| 20260506125539 | 7 | 131 | 0.0 | 0.0 | 0.00 | 0.00 | 0.00 | 95 | 1020.4 |
| 20260506125036 | 7 | 131 | 0.0 | 0.0 | 0.00 | 0.00 | 0.00 | 95 | 1020.5 |
| 20260506124534 | 7 | 131 | 0.0 | 0.0 | 0.00 | 0.00 | 0.00 | 95 | 1020.3 |
| 20260506124032 | 6 | 130 | 0.0 | 0.0 | 0.00 | 0.00 | 0.00 | 95 | 1019.9 |
| 20260506123529 | 6 | 130 | 0.0 | 0.0 | 0.00 | 0.00 | 0.00 | 95 | 1019.6 |
| 20260506123027 | 6 | 130 | 0.0 | 0.0 | 0.00 | 0.00 | 0.00 | 95 | 1019.8 |
| 20260506122523 | 6 | 131 | 0.0 | 0.0 | 0.00 | 0.00 | 0.00 | 95 | 1020.1 |
| 20260506122022 | 6 | 131 | 0.0 | 0.0 | 0.00 | 0.00 | 0.00 | 95 | 1019.9 |
| 20260506121519 | 6 | 152 | 0.0 | 0.0 | 0.00 | 0.00 | 0.00 | 95 | 1019.8 |
| 20260506121015 | 6 | 293 | 0.0 | 0.0 | 0.00 | 0.00 | 0.00 | 95 | 1019.9 |
| 20260506120514 | 6 | 123 | 0.0 | 0.0 | 0.00 | 0.00 | 0.00 | 95 | 1019.7 |
| 20260506120010 | 6 | 121 | 0.0 | 0.0 | 0.00 | 0.00 | 0.00 | 95 | 1019.8 |
| 20260506115508 | 6 | 120 | 0.0 | 0.0 | 0.00 | 0.00 | 0.00 | 95 | 1019.6 |